Weather History for Fort Morgan, CO

Change the Weather History Date:

Monday, February 4, 2013

  Actual Average (KAKO) Record (KAKO)
Temperature  
Mean Temperature 39 °F 29 °F  
Max Temperature 58 °F 41 °F 64 °F (1963)
Min Temperature 20 °F 18 °F -19 °F (1989)
Degree Days  
Heating Degree Days 26    
Month to date heating degree days  
Cooling Degree Days 0    
Month to date cooling degree days  
Moisture  
Dew Point 12 °F    
Average Humidity 41    
Maximum Humidity 65    
Minimum Humidity 13    
Precipitation  
Precipitation 0.00 in 0.01 in 0.39 in (1986)
Month to date precipitation 0.06  
Year to date precipitation 0.36  
Sea Level Pressure  
Sea Level Pressure 29.91 in    
Wind  
Wind Speed 9 mph (West)    
Max Wind Speed 15 mph    
Max Gust Speed 24 mph    
Visibility 10 miles    
Events      
T = Trace of Precipitation, MM = Missing Value Source: NWS Daily Summary

Daily Weather History Graph

Daily Weather History Graph

Search for Another Location

Airport:

Trip Planner

Search our weather history database for the weather conditions in past years. The results will help you decide how hot, cold, wet, or windy it might be!

Date:

Astronomy

Feb. 04, 2013 Rise Set
Actual Time 7:01 AM MST 5:17 PM MST
Civil Twilight 6:32 AM MST 5:46 PM MST
Nautical Twilight 6:00 AM MST 6:18 PM MST
Astronomical Twilight 5:28 AM MST 6:50 PM MST
Moon 1:39 AM MST (2/4) 11:43 AM MST (2/4)
Length of Visible Light 11h 13m
Length of Day
10h 16m
Last Quarter, 36% of the Moon is Illuminated
Feb 4
Last Quarter
Feb 10
New
Feb 17
First Quarter
Feb 25
Full
Mar 4
Last Quarter

Hourly Weather History & Observations

Time (MST) Temp. Windchill Dew Point Humidity Pressure Visibility Wind Dir Wind Speed Gust Speed Precip Events Conditions
12:15 AM 32.5 °F 22.7 °F 9.9 °F 39% 29.95 in 10.0 mi NNW 13.8 mph - N/A   Clear
12:55 AM 32.2 °F 21.8 °F 10.4 °F 40% 29.96 in 10.0 mi North 15.0 mph - N/A   Clear
1:15 AM 30.9 °F 21.2 °F 10.6 °F 43% 29.96 in 10.0 mi NNE 12.7 mph - N/A   Clear
1:35 AM 27.1 °F 16.4 °F 11.1 °F 51% 29.96 in 10.0 mi NNE 12.7 mph - N/A   Clear
1:55 AM 31.3 °F 21.1 °F 12.0 °F 45% 29.97 in 10.0 mi North 13.8 mph - N/A   Clear
2:15 AM 32.4 °F 22.1 °F 12.4 °F 44% 29.97 in 10.0 mi North 15.0 mph - N/A   Clear
3:55 AM 24.4 °F 17.5 °F 10.6 °F 56% 29.97 in 10.0 mi West 5.8 mph - N/A   Clear
4:15 AM 21.4 °F 12.8 °F 10.0 °F 62% 29.97 in 10.0 mi West 6.9 mph - N/A   Clear
4:35 AM 20.5 °F 11.7 °F 9.9 °F 64% 29.96 in 10.0 mi West 6.9 mph - N/A   Clear
4:55 AM 21.9 °F 13.4 °F 10.0 °F 60% 29.97 in 10.0 mi WNW 6.9 mph - N/A   Clear
5:15 AM 23.0 °F 13.9 °F 10.2 °F 58% 29.97 in 10.0 mi WNW 8.1 mph - N/A   Clear
5:35 AM 23.0 °F 13.9 °F 9.7 °F 57% 29.97 in 10.0 mi WNW 8.1 mph - N/A   Clear
5:55 AM 21.2 °F 12.6 °F 10.2 °F 63% 29.97 in 10.0 mi West 6.9 mph - N/A   Clear
6:15 AM 22.5 °F 11.7 °F 10.8 °F 61% 29.97 in 10.0 mi West 10.4 mph - N/A   Clear
6:35 AM 22.6 °F 13.4 °F 10.4 °F 59% 29.97 in 10.0 mi West 8.1 mph - N/A   Clear
6:55 AM 22.1 °F 12.0 °F 10.2 °F 60% 29.97 in 10.0 mi West 9.2 mph - N/A   Clear
7:15 AM 22.1 °F 12.0 °F 10.9 °F 62% 29.97 in 10.0 mi West 9.2 mph - N/A   Clear
7:35 AM 23.4 °F 16.2 °F 12.4 °F 63% 29.96 in 10.0 mi West 5.8 mph - N/A   Clear
7:55 AM 23.9 °F 15.8 °F 13.8 °F 65% 29.97 in 10.0 mi West 6.9 mph - N/A   Clear
8:15 AM 25.5 °F 16.9 °F 14.9 °F 64% 29.97 in 10.0 mi West 8.1 mph - N/A   Clear
8:35 AM 29.1 °F 24.1 °F 16.0 °F 58% 29.96 in 10.0 mi SW 4.6 mph - N/A   Clear
8:55 AM 30.0 °F 21.7 °F 16.2 °F 56% 29.96 in 10.0 mi WSW 9.2 mph - N/A   Clear
9:15 AM 32.4 °F 25.3 °F 16.0 °F 51% 29.96 in 10.0 mi West 8.1 mph - N/A   Clear
9:35 AM 35.2 °F 29.5 °F 17.1 °F 48% 29.96 in 10.0 mi WSW 6.9 mph - N/A   Clear
9:55 AM 38.5 °F 33.4 °F 16.9 °F 42% 29.96 in 10.0 mi WSW 6.9 mph - N/A   Clear
10:15 AM 40.5 °F 36.5 °F 16.9 °F 39% 29.96 in 10.0 mi WSW 5.8 mph - N/A   Clear
10:35 AM 43.3 °F 39.2 °F 17.2 °F 35% 29.96 in 10.0 mi SSW 6.9 mph - N/A   Scattered Clouds
10:55 AM 44.1 °F 39.0 °F 16.7 °F 33% 29.95 in 10.0 mi SSW 9.2 mph - N/A   Scattered Clouds
11:15 AM 47.5 °F - 18.5 °F 32% 29.93 in 10.0 mi SSW 8.1 mph - N/A   Clear
11:35 AM 49.6 °F - 16.9 °F 27% 29.92 in 10.0 mi South 9.2 mph - N/A   Clear
11:55 AM 49.5 °F - 15.3 °F 26% 29.91 in 10.0 mi SSE 8.1 mph - N/A   Scattered Clouds
12:15 PM 53.8 °F - 13.8 °F 21% 29.89 in 10.0 mi South 11.5 mph 16.1 mph N/A   Scattered Clouds
12:35 PM 54.7 °F - 11.1 °F 18% 29.88 in 10.0 mi SSW 8.1 mph - N/A   Clear
12:55 PM 55.6 °F - 11.3 °F 17% 29.87 in 10.0 mi SW 5.8 mph - N/A   Clear
1:15 PM 56.1 °F - 6.8 °F 14% 29.85 in 10.0 mi WSW 5.8 mph - N/A   Clear
1:35 PM 57.4 °F - 7.7 °F 14% 29.84 in 10.0 mi SW 6.9 mph - N/A   Clear
1:55 PM 57.9 °F - 7.7 °F 14% 29.84 in 10.0 mi WNW 4.6 mph - N/A   Clear
2:15 PM 58.1 °F - 7.2 °F 13% 29.84 in 10.0 mi NW 9.2 mph - N/A   Clear
2:35 PM 57.4 °F - 6.6 °F 13% 29.84 in 10.0 mi NW 8.1 mph - N/A   Clear
2:55 PM 57.2 °F - 6.8 °F 13% 29.84 in 10.0 mi West 9.2 mph - N/A   Clear
3:15 PM 57.2 °F - 7.2 °F 14% 29.84 in 10.0 mi West 10.4 mph - N/A   Clear
3:35 PM 57.0 °F - 7.3 °F 14% 29.83 in 10.0 mi West 10.4 mph - N/A   Clear
3:55 PM 57.2 °F - 7.7 °F 14% 29.84 in 10.0 mi NW 9.2 mph 16.1 mph N/A   Clear
4:15 PM 54.1 °F - 8.1 °F 16% 29.84 in 10.0 mi NW 12.7 mph 24.2 mph N/A   Clear
4:35 PM 51.1 °F - 10.0 °F 19% 29.84 in 10.0 mi NW 11.5 mph - N/A   Clear
4:55 PM 46.4 °F 41.1 °F 10.2 °F 23% 29.85 in 10.0 mi NW 11.5 mph - N/A   Clear
5:15 PM 45.9 °F 40.4 °F 10.8 °F 24% 29.86 in 10.0 mi NNW 11.5 mph 23.0 mph N/A   Clear
5:35 PM 40.1 °F 33.6 °F 10.8 °F 30% 29.87 in 10.0 mi NNW 10.4 mph - N/A   Clear
5:55 PM 38.7 °F 30.9 °F 11.8 °F 33% 29.88 in 10.0 mi NNW 12.7 mph - N/A   Clear
6:15 PM 38.7 °F 31.4 °F 12.2 °F 34% 29.89 in 10.0 mi North 11.5 mph - N/A   Clear
6:35 PM 36.9 °F 30.7 °F 12.4 °F 37% 29.89 in 10.0 mi NNE 8.1 mph - N/A   Clear
6:55 PM 34.7 °F 28.1 °F 13.5 °F 42% 29.89 in 10.0 mi ENE 8.1 mph - N/A   Clear
7:15 PM 35.2 °F 27.6 °F 13.5 °F 41% 29.89 in 10.0 mi NNE 10.4 mph - N/A   Clear
7:35 PM 33.1 °F 26.1 °F 13.8 °F 45% 29.88 in 10.0 mi NNE 8.1 mph - N/A   Clear
7:55 PM 31.6 °F 28.3 °F 13.5 °F 47% 29.88 in 10.0 mi ESE 3.5 mph - N/A   Clear
8:15 PM 32.2 °F 27.7 °F 13.8 °F 47% 29.89 in 10.0 mi SSE 4.6 mph - N/A   Clear
8:35 PM 32.9 °F 26.7 °F 13.8 °F 45% 29.89 in 10.0 mi South 6.9 mph - N/A   Clear
8:55 PM 31.6 °F - 14.2 °F 49% 29.89 in 10.0 mi Calm Calm - N/A   Clear
9:15 PM 33.4 °F 30.4 °F 14.0 °F 45% 29.90 in 10.0 mi South 3.5 mph - N/A   Clear
9:35 PM 32.7 °F 29.6 °F 14.4 °F 47% 29.90 in 10.0 mi South 3.5 mph - N/A   Clear
9:55 PM 31.3 °F 27.9 °F 14.5 °F 50% 29.91 in 10.0 mi SW 3.5 mph - N/A   Clear
10:15 PM 32.0 °F 28.7 °F 15.8 °F 51% 29.90 in 10.0 mi SSW 3.5 mph - N/A   Clear
10:35 PM 32.0 °F - 15.8 °F 51% 29.91 in 10.0 mi Calm Calm - N/A   Clear
10:55 PM 32.0 °F 27.5 °F 15.8 °F 51% 29.92 in 10.0 mi West 4.6 mph - N/A   Clear
11:15 PM 29.5 °F 21.1 °F 15.1 °F 55% 29.91 in 10.0 mi WNW 9.2 mph - N/A   Clear
11:35 PM 28.9 °F 20.4 °F 16.5 °F 60% 29.93 in 10.0 mi WNW 9.2 mph - N/A   Clear
11:55 PM 30.0 °F 22.4 °F 16.5 °F 57% 29.92 in 10.0 mi West 8.1 mph - N/A   Clear